Bei Facebook empfehlenBei Twitter postenGoogle plusPinterest

Das Wetter im Erzgebirge am 03.02.2015

Wetter und Klima am 03.02.2015 Holzhau im Erzgebirge (630m ü.NN)
Letzte gemessene Temperatur und Uhrzeit der Messung23:45:00 Uhr-3.70 °C
Temperatur (Maximum / Höchstwert) und Uhrzeit der Messung12:30:00 Uhr1.30 °C
Temperatur (Minimum / Tiefstwert) und Uhrzeit der Messung17:45:00-5.50 °C
Errechneter Absolutwert der Temperaturschwankungen zwischen Tmin und Tmax des Tages6.80 K
Errechnete Tagesmitteltemperatur-2.36354 °C
Gesamt - Niederschlag des Tages (in flüssiger Form)0.00 Liter / m²
Luftdruck (Maximum / Höchstwert) und Zeitpunkt der Messung23:45:00 Uhr1001.60 hPa
Luftdruck (Minimum / Tiefstwert) und Zeitpunkt der Messung03:30:00 Uhr995.70 hPa
Errechneter Absolutwert der Luftdruckschwankungen des Tages5.90 hPa
Höchste gemessene Windgeschwindigkeit und Uhrzeit der Messung09:30:00 Uhr14.04 km/h
Errechnete Windhäufigkeit in Relation zu den Messwerten des Tages5.20833 %
Niedrigste Windkühle (Windchill) und Zeitpunkt der Messung09:30:00 Uhr-6.80 °C
Taupunkt (Maximum / Höchstwert) und Uhrzeit der Messung12:00:00 Uhr-2.10 °C
Taupunkt (Minimum / Tiefstwert) und Uhrzeit der Messung17:45:00-8.00 °C
Anzahl der automatisch eingelesenen Messwerte 96

Detaillierte Wetter- und Klima- Messwerte für den 03.02.2015 in Holzhau im Erzgebirge (630m ü.NN)
ZeitTemperaturLuftdruckRel. LuftfeuchteWindWindrichtungWindchillTaupunktNiederschlag l/m²
23:45:00-3.70 °C1001.60 hPa89.00 %-5.40 °C 
23:30:00-3.60 °C1001.60 hPa89.00 %-5.30 °C 
23:15:00-3.70 °C1001.50 hPa89.00 %-5.40 °C 
23:00:00-3.70 °C1001.60 hPa89.00 %-5.40 °C 
22:45:00-3.70 °C1001.50 hPa88.00 %-5.60 °C 
22:30:00-3.80 °C1001.30 hPa88.00 %-5.70 °C 
22:15:00-3.80 °C1001.30 hPa88.00 %-5.70 °C 
22:00:00-3.70 °C1001.40 hPa87.00 %-5.80 °C 
21:45:00-3.40 °C1001.10 hPa87.00 %-5.50 °C 
21:30:00-3.40 °C1001.20 hPa87.00 %-5.50 °C 
21:15:00-3.40 °C1001.20 hPa87.00 %-5.50 °C 
21:00:00-3.30 °C1001.00 hPa86.00 %-5.50 °C 
20:45:00-3.20 °C1001.00 hPa86.00 %-5.40 °C 
20:30:00-3.10 °C1001.00 hPa86.00 %-5.30 °C 
20:15:00-3.10 °C1000.80 hPa86.00 %-5.30 °C 
20:00:00-3.20 °C1000.70 hPa87.00 %-5.30 °C 
19:45:00-3.40 °C1000.60 hPa87.00 %-5.50 °C 
19:30:00-3.60 °C1000.60 hPa87.00 %-5.70 °C 
19:15:00-4.10 °C1000.60 hPa87.00 %-6.20 °C 
19:00:00-4.50 °C1000.50 hPa87.00 %-6.60 °C 
18:45:00-4.70 °C1000.60 hPa87.00 %-6.70 °C 
18:30:00-5.00 °C1000.30 hPa86.00 %-7.20 °C 
18:15:00-5.10 °C1000.20 hPa85.00 %-7.50 °C 
18:00:00-5.40 °C1000.10 hPa85.00 %-7.80 °C 
17:45:00-5.50 °C1000.10 hPa84.00 %-8.00 °C 
17:30:00-5.10 °C999.80 hPa82.00 %-8.00 °C 
17:15:00-4.10 °C999.60 hPa82.00 %-7.00 °C 
17:00:00-3.30 °C999.30 hPa81.00 %-6.40 °C 
16:45:00-3.20 °C999.00 hPa81.00 %-6.30 °C 
16:30:00-2.70 °C998.80 hPa80.00 %-6.00 °C 
16:15:00-2.50 °C998.80 hPa80.00 %4.32 km/hSW-2.50 °C-5.80 °C 
16:00:00-2.20 °C998.80 hPa79.00 %-5.70 °C 
15:45:00-1.50 °C998.80 hPa78.00 %-5.20 °C 
15:30:00-1.30 °C998.70 hPa78.00 %-5.00 °C 
15:15:00-0.80 °C998.80 hPa76.00 %-4.90 °C 
15:00:00-0.40 °C998.70 hPa76.00 %-4.50 °C 
14:45:00-0.50 °C998.70 hPa77.00 %-4.40 °C 
14:30:00-0.10 °C998.70 hPa75.00 %8.28 km/hSSW-2.90 °C-4.40 °C 
14:15:000.40 °C998.70 hPa76.00 %4.68 km/hWSW0.40 °C-3.30 °C 
14:00:000.10 °C998.80 hPa77.00 %-3.40 °C 
13:45:000.30 °C998.70 hPa78.00 %-3.10 °C 
13:30:00-0.40 °C998.60 hPa78.00 %-4.20 °C 
13:15:00-0.10 °C998.60 hPa77.00 %-4.10 °C 
13:00:000.20 °C998.60 hPa77.00 %-3.30 °C 
12:45:000.90 °C998.40 hPa76.00 %-2.80 °C 
12:30:001.30 °C998.20 hPa77.00 %-2.30 °C 
12:15:000.80 °C998.50 hPa79.00 %-2.40 °C 
12:00:000.90 °C998.50 hPa80.00 %-2.10 °C 
11:45:000.10 °C998.50 hPa81.00 %-2.80 °C 
11:30:000.20 °C998.60 hPa80.00 %-2.80 °C 
11:15:000.60 °C998.50 hPa82.00 %-2.10 °C 
11:00:00-0.20 °C998.60 hPa83.00 %-3.00 °C 
10:45:00-0.20 °C998.40 hPa84.00 %-2.80 °C 
10:30:00-0.20 °C998.10 hPa86.00 %-2.50 °C 
10:15:00-1.20 °C998.20 hPa88.00 %-3.10 °C 
10:00:00-1.60 °C998.10 hPa88.00 %-3.50 °C 
09:45:00-1.90 °C998.10 hPa89.00 %1.44 km/hSW-1.90 °C-3.70 °C 
09:30:00-2.10 °C997.90 hPa90.00 %14.04 km/hSW-6.80 °C-3.70 °C 
09:15:00-2.20 °C997.90 hPa90.00 %-3.80 °C 
09:00:00-2.40 °C997.70 hPa91.00 %-3.80 °C 
08:45:00-2.50 °C997.50 hPa91.00 %-3.90 °C 
08:30:00-2.50 °C997.50 hPa91.00 %-3.90 °C 
08:15:00-2.70 °C997.20 hPa91.00 %-4.10 °C 
08:00:00-2.80 °C997.20 hPa91.00 %-4.20 °C 
07:45:00-2.80 °C997.10 hPa91.00 %-4.20 °C 
07:30:00-2.80 °C997.10 hPa91.00 %-4.20 °C 
07:15:00-2.80 °C997.00 hPa91.00 %-4.20 °C 
07:00:00-2.80 °C997.00 hPa91.00 %-4.20 °C 
06:45:00-2.80 °C996.90 hPa91.00 %-4.20 °C 
06:30:00-2.80 °C996.70 hPa91.00 %-4.20 °C 
06:15:00-2.80 °C996.60 hPa91.00 %-4.20 °C 
06:00:00-2.70 °C996.50 hPa91.00 %-4.10 °C 
05:45:00-2.60 °C996.70 hPa91.00 %-4.00 °C 
05:30:00-2.60 °C996.50 hPa91.00 %-4.00 °C 
05:15:00-2.50 °C996.40 hPa91.00 %-3.90 °C 
05:00:00-2.50 °C996.30 hPa91.00 %-3.90 °C 
04:45:00-2.50 °C996.20 hPa91.00 %-3.90 °C 
04:30:00-2.40 °C996.10 hPa91.00 %-3.80 °C 
04:15:00-2.50 °C995.90 hPa91.00 %-3.90 °C 
04:00:00-2.60 °C995.90 hPa91.00 %-4.00 °C 
03:45:00-2.60 °C995.90 hPa90.00 %-4.20 °C 
03:30:00-2.50 °C995.70 hPa90.00 %-4.10 °C 
03:15:00-2.50 °C995.80 hPa90.00 %-4.10 °C 
03:00:00-2.40 °C995.90 hPa90.00 %-4.00 °C 
02:45:00-2.50 °C995.90 hPa90.00 %-4.10 °C 
02:30:00-2.60 °C995.90 hPa90.00 %-4.20 °C 
02:15:00-2.70 °C995.90 hPa90.00 %-4.30 °C 
02:00:00-2.60 °C995.70 hPa90.00 %-4.20 °C 
01:45:00-2.60 °C995.80 hPa90.00 %-4.20 °C 
01:30:00-2.60 °C995.70 hPa90.00 %-4.20 °C 
01:15:00-2.60 °C995.70 hPa90.00 %-4.20 °C 
01:00:00-2.70 °C995.70 hPa90.00 %-4.30 °C 
00:45:00-2.70 °C995.70 hPa90.00 %-4.30 °C 
00:30:00-2.90 °C995.80 hPa90.00 %-4.50 °C 
00:15:00-2.90 °C995.70 hPa90.00 %-4.50 °C 
00:00:00-3.00 °C995.80 hPa90.00 %-4.60 °C 

Permanenter Link zu dieser Seite: Wetter im Erzgebirge am 03.02.2015
Performance-Info: Die Erstellung der Seite / Statistik(en) / Tabelle(n) erforderte 5 Datenbankserver-Abfrage(n) und dauerte 99 Millisekunden. (Dieser Messwert ist von der Gesamt-Auslastung des Servers abhängig.)
Erzgebirge - Wetter | Erzgebirge - Wetter (Mobilgeräte) | Komplette Klimadatenbank